When you browse on this site, cookies collect data to enhance your experience and personalize the content and advertising you see.
Visit our Privacy Policy to learn more. By continuing to use the site, you agree to this use of cookies and data.
  • In United Kingdom
  • List of Countries
  • For 7 days
  • Water Temperature
  • Weather Map
  • Weather Widgets
  • user-avatar
    Login

    Hourly Weather Minturno

    Today, 20 September, Friday

    Time Temperature Precipitation Wind Pressure Humidity
    00:00 +21°C° 0 mm 3 mps 760 mmHg 82%
    01:00 +20°C° 0 mm 2 mps 760 mmHg 82%
    02:00 +20°C° 0 mm 2 mps 760 mmHg 82%
    03:00 +20°C° 0 mm 3 mps 760 mmHg 82%
    04:00 +20°C° 0 mm 3 mps 760 mmHg 82%
    05:00 +20°C° 0 mm 3 mps 760 mmHg 80%
    06:00 +20°C° 0 mm 3 mps 760 mmHg 79%
    07:00 +20°C° 0 mm 4 mps 760 mmHg 77%
    08:00 +21°C° 0 mm 3 mps 761 mmHg 69%
    09:00 +24°C° 0 mm 3 mps 761 mmHg 61%
    10:00 +26°C° 0 mm 3 mps 761 mmHg 53%
    11:00 +27°C° 0 mm 3 mps 761 mmHg 50%
    12:00 +28°C° 0 mm 3 mps 761 mmHg 47%
    13:00 +29°C° 0 mm 3 mps 761 mmHg 44%
    14:00 +28°C° 0 mm 3 mps 761 mmHg 44%
    15:00 +28°C° 0 mm 2 mps 761 mmHg 45%
    16:00 +28°C° 0 mm 2 mps 761 mmHg 46%
    17:00 +26°C° 0 mm 2 mps 761 mmHg 50%
    18:00 +24°C° 0 mm 2 mps 761 mmHg 54%
    19:00 +22°C° 0 mm 3 mps 761 mmHg 59%
    20:00 +21°C° 0 mm 3 mps 762 mmHg 61%
    21:00 +20°C° 0 mm 3 mps 762 mmHg 63%
    22:00 +19°C° 0 mm 3 mps 762 mmHg 65%
    23:00 +19°C° 0 mm 3 mps 762 mmHg 65%

    Tomorrow, 21 September, Saturday

    Time Temperature Precipitation Wind Pressure Humidity
    00:00 +19°C° 0 mm 3 mps 762 mmHg 66%
    01:00 +18°C° 0 mm 3 mps 763 mmHg 66%
    02:00 +18°C° 0 mm 3 mps 762 mmHg 67%
    03:00 +18°C° 0 mm 3 mps 762 mmHg 67%
    04:00 +18°C° 0 mm 3 mps 762 mmHg 68%
    05:00 +18°C° 0 mm 2 mps 762 mmHg 66%
    06:00 +19°C° 0 mm 2 mps 762 mmHg 65%
    07:00 +19°C° 0 mm 2 mps 762 mmHg 63%
    08:00 +21°C° 0 mm 2 mps 762 mmHg 57%
    09:00 +25°C° 0 mm 2 mps 763 mmHg 51%
    10:00 +27°C° 0 mm 2 mps 763 mmHg 46%
    11:00 +27°C° 0 mm 2 mps 763 mmHg 44%
    12:00 +28°C° 0 mm 2 mps 763 mmHg 42%
    13:00 +29°C° 0 mm 3 mps 763 mmHg 40%
    14:00 +28°C° 0 mm 2 mps 762 mmHg 42%
    15:00 +27°C° 0 mm 2 mps 762 mmHg 44%
    16:00 +27°C° 0 mm 2 mps 762 mmHg 46%
    17:00 +26°C° 0 mm 2 mps 762 mmHg 51%
    18:00 +24°C° 0 mm 1 mps 762 mmHg 56%
    19:00 +23°C° 0 mm 1 mps 762 mmHg 60%
    20:00 +22°C° 0 mm 1 mps 762 mmHg 62%
    21:00 +20°C° 0 mm 0 mps 762 mmHg 64%
    22:00 +20°C° 0 mm 0 mps 763 mmHg 65%
    23:00 +21°C° 0 mm 1 mps 762 mmHg 66%

    Day after tomorrow, 22 September, Sunday

    Time Temperature Precipitation Wind Pressure Humidity
    00:00 +21°C° 0 mm 1 mps 762 mmHg 67%
    01:00 +21°C° 0 mm 1 mps 762 mmHg 68%
    02:00 +20°C° 0.3 mm 2 mps 761 mmHg 71%
    03:00 +20°C° 0.3 mm 2 mps 761 mmHg 75%
    04:00 +20°C° 0.3 mm 2 mps 761 mmHg 79%
    05:00 +20°C° 0.3 mm 2 mps 760 mmHg 79%
    06:00 +20°C° 0.3 mm 2 mps 760 mmHg 79%
    07:00 +20°C° 0.3 mm 2 mps 760 mmHg 78%
    08:00 +23°C° 0.4 mm 2 mps 760 mmHg 75%
    09:00 +24°C° 0.4 mm 2 mps 760 mmHg 72%
    10:00 +25°C° 0.4 mm 3 mps 761 mmHg 69%
    11:00 +25°C° 0.6 mm 3 mps 760 mmHg 70%
    12:00 +25°C° 0.6 mm 3 mps 760 mmHg 72%
    13:00 +25°C° 0.6 mm 3 mps 760 mmHg 74%
    14:00 +24°C° 1.9 mm 2 mps 759 mmHg 80%
    15:00 +24°C° 1.9 mm 2 mps 759 mmHg 86%
    16:00 +23°C° 1.9 mm 2 mps 759 mmHg 92%
    17:00 +23°C° 2.5 mm 2 mps 759 mmHg 94%
    18:00 +21°C° 2.5 mm 3 mps 759 mmHg 95%
    19:00 +21°C° 2.5 mm 3 mps 759 mmHg 96%
    20:00 +21°C° 0.2 mm 3 mps 759 mmHg 96%
    21:00 +21°C° 0.2 mm 2 mps 759 mmHg 95%
    22:00 +22°C° 0.2 mm 1 mps 759 mmHg 95%
    23:00 +21°C° 0.5 mm 2 mps 758 mmHg 94%

    23 September, Monday

    Time Temperature Precipitation Wind Pressure Humidity
    00:00 +21°C° 0.5 mm 2 mps 758 mmHg 94%
    01:00 +21°C° 0.5 mm 2 mps 758 mmHg 93%
    02:00 +21°C° 0.8 mm 2 mps 757 mmHg 92%
    03:00 +21°C° 0.8 mm 2 mps 757 mmHg 92%
    04:00 +21°C° 0.8 mm 2 mps 757 mmHg 91%
    05:00 +21°C° 1 mm 2 mps 756 mmHg 90%
    06:00 +21°C° 1 mm 2 mps 756 mmHg 90%
    07:00 +22°C° 1 mm 3 mps 756 mmHg 90%
    08:00 +22°C° 0.6 mm 3 mps 756 mmHg 88%
    09:00 +24°C° 0.6 mm 3 mps 756 mmHg 87%
    10:00 +24°C° 0.6 mm 3 mps 756 mmHg 85%
    11:00 +25°C° 1.6 mm 3 mps 755 mmHg 87%
    12:00 +25°C° 1.6 mm 3 mps 755 mmHg 88%
    13:00 +25°C° 1.6 mm 3 mps 754 mmHg 89%
    14:00 +25°C° 1.3 mm 4 mps 754 mmHg 88%
    15:00 +25°C° 1.3 mm 4 mps 754 mmHg 86%
    16:00 +26°C° 1.3 mm 4 mps 753 mmHg 85%
    17:00 +23°C° 0.1 mm 4 mps 754 mmHg 83%
    18:00 +22°C° 0.1 mm 5 mps 754 mmHg 81%
    19:00 +21°C° 0.1 mm 5 mps 754 mmHg 79%
    20:00 +21°C° 0 mm 4 mps 754 mmHg 78%
    21:00 +20°C° 0 mm 4 mps 755 mmHg 78%
    22:00 +20°C° 0 mm 3 mps 755 mmHg 77%
    23:00 +19°C° 0 mm 3 mps 755 mmHg 78%

    24 September, Tuesday

    Time Temperature Precipitation Wind Pressure Humidity
    00:00 +19°C° 0 mm 3 mps 755 mmHg 80%
    01:00 +19°C° 0 mm 3 mps 755 mmHg 81%
    02:00 +18°C° 0 mm 2 mps 755 mmHg 82%
    03:00 +18°C° 0 mm 2 mps 755 mmHg 82%
    04:00 +18°C° 0 mm 2 mps 755 mmHg 83%
    05:00 +18°C° 0 mm 2 mps 755 mmHg 82%
    06:00 +18°C° 0 mm 2 mps 755 mmHg 81%
    07:00 +19°C° 0 mm 2 mps 755 mmHg 80%
    08:00 +21°C° 0 mm 1 mps 756 mmHg 73%
    09:00 +23°C° 0 mm 1 mps 756 mmHg 67%
    10:00 +25°C° 0 mm 1 mps 756 mmHg 60%
    11:00 +26°C° 0 mm 1 mps 756 mmHg 56%
    12:00 +26°C° 0 mm 2 mps 756 mmHg 53%
    13:00 +27°C° 0 mm 3 mps 756 mmHg 49%
    14:00 +27°C° 0 mm 3 mps 756 mmHg 51%
    15:00 +27°C° 0 mm 3 mps 756 mmHg 53%
    16:00 +26°C° 0 mm 4 mps 756 mmHg 55%
    17:00 +25°C° 0 mm 3 mps 756 mmHg 62%
    18:00 +22°C° 0 mm 3 mps 756 mmHg 69%
    19:00 +21°C° 0 mm 3 mps 756 mmHg 76%
    20:00 +20°C° 0 mm 2 mps 756 mmHg 77%
    21:00 +20°C° 0 mm 2 mps 757 mmHg 77%
    22:00 +20°C° 0 mm 2 mps 757 mmHg 78%
    23:00 +20°C° 0 mm 2 mps 757 mmHg 78%

    25 September, Wednesday

    Time Temperature Precipitation Wind Pressure Humidity
    00:00 +20°C° 0 mm 1 mps 757 mmHg 78%
    01:00 +20°C° 0 mm 1 mps 756 mmHg 78%
    02:00 +20°C° 0 mm 1 mps 756 mmHg 78%
    03:00 +20°C° 0 mm 1 mps 756 mmHg 78%
    04:00 +20°C° 0 mm 1 mps 756 mmHg 79%
    05:00 +20°C° 0 mm 1 mps 756 mmHg 77%
    06:00 +20°C° 0 mm 1 mps 756 mmHg 76%
    07:00 +21°C° 0 mm 1 mps 756 mmHg 75%
    08:00 +23°C° 0 mm 1 mps 757 mmHg 69%
    09:00 +24°C° 0 mm 1 mps 757 mmHg 63%
    10:00 +26°C° 0 mm 1 mps 757 mmHg 57%
    11:00 +27°C° 0 mm 1 mps 757 mmHg 55%
    12:00 +27°C° 0 mm 2 mps 757 mmHg 53%
    13:00 +28°C° 0 mm 3 mps 757 mmHg 52%
    14:00 +27°C° 0 mm 3 mps 757 mmHg 55%
    15:00 +27°C° 0 mm 3 mps 756 mmHg 58%
    16:00 +26°C° 0 mm 3 mps 756 mmHg 61%
    17:00 +25°C° 0 mm 2 mps 757 mmHg 67%
    18:00 +24°C° 0 mm 2 mps 757 mmHg 73%
    19:00 +22°C° 0 mm 1 mps 757 mmHg 80%
    20:00 +22°C° 0 mm 1 mps 757 mmHg 81%
    21:00 +22°C° 0 mm 1 mps 757 mmHg 82%
    22:00 +19°C° 0 mm 0 mps 757 mmHg 82%
    23:00 +19°C° 0 mm 0 mps 757 mmHg 83%
    Show more